N2RFA-13 Weather Reports


Display with metric or nautical units.
time (UTC)temp
F
wind
direction
speed
MPH
gust
MPH
rain 1hr
in
rain 24hr
in
rain mn
in
humidity
%
barometer
mb
20260905164537 79 194 0.0 2.0 0.00 0.00 0.00 65 1011.9
20260905163036 79 194 0.0 2.0 0.00 0.00 0.00 64 1012.0
20260905161539 78 194 0.0 2.0 0.00 0.00 0.00 68 1012.0
20260905160032 77 194 0.0 2.0 0.00 0.00 0.00 67 1011.9
20260905154529 77 194 0.0 2.0 0.00 0.00 0.00 71 1012.0
20260905153028 76 287 0.0 1.0 0.00 0.00 0.00 71 1012.1
20260905151529 76 134 0.0 1.0 0.00 0.00 0.00 72 1012.2
20260905150020 0 0.0 0.0 0.00 0.00 0.00 1012.1
20260905144516 0 0.0 0.0 0.00 0.00 0.00 1012.1
20260905143020 0 0.0 0.0 0.00 0.00 0.00 1012.1
20260905141507 0 0.0 0.0 0.00 0.00 0.00 1012.0
20260905140002 0 0.0 0.0 0.00 0.00 0.00 1012.0
20260905134558 0 0.0 0.0 0.00 0.00 0.00 1011.9
20260905133054 0 0.0 0.0 0.00 0.00 0.00 1011.9
20260905131556 0 0.0 0.0 0.00 0.00 0.00 1012.0
20260905130045 0 0.0 0.0 0.00 0.00 0.00 1012.1
20260905124541 0 0.0 0.0 0.00 0.00 0.00 1012.3
20260905123037 0 0.0 0.0 0.00 0.00 0.00 1012.5
20260905121531 0 0.0 0.0 0.00 0.00 0.00 1012.5
20260905120028 0 0.0 0.0 0.00 0.00 0.00 1012.4
20260905114523 0 0.0 0.0 0.00 0.00 0.00 1012.3
20260905113020 0 0.0 0.0 0.00 0.00 0.00 1012.2
20260905111514 0 0.0 0.0 0.00 0.00 0.00 1012.0
20260905110009 0 0.0 0.0 0.00 0.00 0.00 1011.7
20260905104505 0 0.0 0.0 0.00 0.00 0.00 1011.3
20260905103002 0 0.0 0.0 0.00 0.00 0.00 1011.4
20260905101601 0 0.0 0.0 0.00 0.00 0.00 1011.3
20260905100058 0 120 0.0 0.0 0.00 0.00 0.00 91 1011.2
20260905094549 63 119 0.0 0.0 0.00 0.00 0.00 90 1011.0
20260905093048 64 119 0.0 0.0 0.00 0.00 0.00 89 1011.1
20260905091605 64 119 0.0 0.0 0.00 0.00 0.00 89 1011.1
20260905090043 65 119 0.0 0.0 0.00 0.00 0.00 87 1011.1
20260905084601 66 119 0.0 0.0 0.00 0.00 0.00 85 1011.0
20260905083039 66 119 0.0 0.0 0.00 0.00 0.00 84 1010.9
20260905081539 67 120 0.0 1.0 0.00 0.00 0.00 84 1010.9
20260905080041 67 129 0.0 1.0 0.00 0.00 0.00 83 1011.0
20260905074537 67 129 0.0 1.0 0.00 0.00 0.00 83 1011.0
20260905073039 67 120 0.0 1.0 0.00 0.00 0.00 84 1011.0
20260905071542 67 304 0.0 0.0 0.00 0.00 0.00 83 1011.1
20260905070100 67 304 0.0 0.0 0.00 0.00 0.00 84 1011.1
20260905064534 67 304 0.0 2.0 0.00 0.00 0.00 86 1011.2
20260905063033 67 24 0.0 1.0 0.00 0.00 0.00 87 1011.2
20260905061532 67 113 0.0 0.0 0.00 0.00 0.00 87 1011.2
20260905060031 67 115 0.0 1.0 0.00 0.00 0.00 89 1011.4
20260905054544 66 26 0.0 1.0 0.00 0.00 0.00 89 1011.4
20260905053039 66 117 0.0 0.0 0.00 0.00 0.00 91 1011.4
20260905051537 67 117 0.0 1.0 0.00 0.00 0.00 91 1011.8
20260905050024 67 117 0.0 1.0 0.00 0.00 0.00 91 1012.0
20260905044524 67 117 0.0 0.0 0.00 0.00 0.00 92 1012.0
20260905043022 67 117 0.0 0.0 0.00 0.00 0.00 91 1012.0
20260905041521 67 117 0.0 0.0 0.00 0.00 0.00 91 1012.2
20260905040022 67 117 0.0 1.0 0.00 0.00 0.00 91 1012.2
20260905034525 67 117 0.0 0.0 0.00 0.00 0.00 92 1012.1
20260905033024 67 117 0.0 0.0 0.00 0.00 0.00 93 1012.1
20260905031517 67 117 0.0 0.0 0.00 0.00 0.00 93 1012.1
20260905030017 66 117 0.0 1.0 0.00 0.00 0.00 93 1012.1
20260905024516 66 116 0.0 1.0 0.00 0.00 0.00 93 1012.1
20260905023021 66 116 0.0 1.0 0.00 0.00 0.00 93 1012.0
20260905021516 66 117 0.0 0.0 0.00 0.00 0.00 93 1012.2
20260905020020 66 109 0.0 1.0 0.00 0.00 0.00 93 1012.2
20260905014514 66 109 0.0 0.0 0.00 0.00 0.00 92 1012.4
20260905013013 66 109 0.0 0.0 0.00 0.00 0.00 92 1012.2
20260905011517 66 108 0.0 0.0 0.00 0.00 0.00 91 1012.1
20260905010010 67 109 0.0 0.0 0.00 0.00 0.00 91 1012.1
20260905004509 67 109 0.0 0.0 0.00 0.00 0.00 91 1012.2
20260905003009 68 109 0.0 0.0 0.00 0.00 0.00 90 1012.1
20260905001505 68 109 0.0 0.0 0.00 0.00 0.00 89 1012.0
20260905000003 69 108 0.0 0.0 0.00 0.00 0.00 88 1011.8
20260904234559 70 108 0.0 0.0 0.00 0.00 0.00 88 1011.8
20260904233100 71 108 0.0 0.0 0.00 0.00 0.00 88 1011.5
20260904231559 71 109 0.0 0.0 0.00 0.00 0.00 88 1011.6
20260904230108 72 108 0.0 0.0 0.00 0.00 0.00 84 1011.5
20260904224609 73 108 0.0 0.0 0.00 0.00 0.00 84 1011.7
20260904223059 73 108 0.0 1.0 0.00 0.00 0.00 83 1011.8
20260904221556 74 108 0.0 1.0 0.00 0.00 0.00 82 1011.8
20260904220056 74 110 0.0 1.0 0.00 0.00 0.00 80 1011.9
20260904214557 75 110 0.0 1.0 0.00 0.00 0.00 78 1011.7
20260904213057 76 110 0.0 1.0 0.00 0.00 0.00 73 1011.6
20260904211559 77 129 0.0 1.0 0.00 0.00 0.00 74 1011.3
20260904210154 78 123 0.0 1.0 0.00 0.00 0.00 71 1011.2
20260904204552 78 131 0.0 1.0 0.00 0.00 0.00 72 1011.5
20260904203052 79 98 0.0 1.0 0.00 0.00 0.00 68 1011.8
20260904201551 80 117 0.0 1.0 0.00 0.00 0.00 67 1011.9
20260904200051 80 124 0.0 3.0 0.00 0.00 0.00 67 1011.9
20260904194550 80 141 0.0 2.0 0.00 0.00 0.00 65 1012.1
20260904193052 80 113 0.0 1.0 0.00 0.00 0.00 67 1012.1
20260904191649 79 117 0.0 3.0 0.00 0.00 0.00 72 1012.2
20260904190052 80 124 0.0 1.0 0.00 0.00 0.00 67 1012.3
20260904184548 81 133 0.0 1.0 0.00 0.00 0.00 66 1012.5
20260904183047 82 122 0.0 3.0 0.00 0.00 0.00 63 1012.6
20260904181548 83 112 0.0 4.0 0.00 0.00 0.00 62 1012.5
20260904180047 84 115 0.0 2.0 0.00 0.00 0.00 65 1012.5
20260904174548 83 126 0.0 3.0 0.00 0.00 0.00 64 1012.4
20260904173045 84 128 0.0 2.0 0.00 0.00 0.00 60 1012.5
20260904171552 85 122 0.0 4.0 0.00 0.00 0.00 62 1012.4
20260904170046 86 117 0.0 3.0 0.00 0.00 0.00 61 1012.5